Regional Weather Roundup
Issued by NWS Newport/Morehead, NC

Current Version | Previous Version | Text Only | Print | Product List | Glossary On
Versions: 1 2 3 4 5 6 7 8 9 10 11 12 13 14 15 16 17 18 19 20 21 22 23 24 25 26 27 28 29 30 31 32 33 34 35 36 37 38 39 40 41 42 43 44 45 46 47 48 49 50
000
ASUS42 KMHX 291524
RWRMHX
WEATHER ROUNDUP FOR EASTERN NORTH CAROLINA
NATIONAL WEATHER SERVICE NEWPORT/MOREHEAD CITY NC
1100 AM EDT SUN MAR 29 2015

NOTE: "FAIR" INDICATES FEW OR NO CLOUDS BELOW 12,000 FEET
WITH NO SIGNIFICANT WEATHER AND/OR OBSTRUCTIONS TO VISIBILITY

NCZ015>017-031-032-045>047-102-103-291600-
NORTH COAST

CITY           SKY/WX    TMP DP  RH WIND       PRES   REMARKS
EDENTON        SUNNY     38  11  33 NW14G20   30.42S
ELIZABETH CITY SUNNY     36  13  38 NW12G21   30.41S
KITTY HAWK     SUNNY     36  12  37 NW9G17    30.38S
MANTEO         SUNNY     37  13  38 N15       30.40F

$$

NCZ045>047-081-094-103-104-291600-
CENTRAL COAST

CITY           SKY/WX    TMP DP  RH WIND       PRES   REMARKS
FRISCO         SUNNY     38  13  35 N9G22     30.39S
SWANQUARTER      N/A     39 N/A N/A N3G21     30.39S

$$

NCZ095-097-098-100-101-291600-
SOUTHERN COAST

CITY           SKY/WX    TMP DP  RH WIND       PRES   REMARKS
BEAUFORT       SUNNY     40  18  41 N13G22    30.42R
CEDAR ISLAND     N/A     37 N/A N/A NW22      30.44S
JACKSONVILLE   SUNNY     39  12  33 NW15      30.44R
PINEY ISLAND   SUNNY    N/A N/A N/A NW14      30.42S
WILMINGTON     SUNNY     40  11  30 N7G17     30.45S


$$

NCZ011>013-027>030-043-044-078>080-089-090>093-098-291600-
COASTAL PLAIN

CITY           SKY/WX    TMP DP  RH WIND       PRES   REMARKS
AHOSKIE        SUNNY     34  10  35 N9        30.44S
CLINTON        SUNNY     40  15  35 N8        30.47R
ELIZABETHTOWN  SUNNY     40  11  30 NE5       30.46R
GOLDSBORO      SUNNY     38  13  34 VRB6      30.43R
GREENVILLE     SUNNY     37  12  35 N8        30.44S
HAVELOCK       SUNNY     39  14  36 N9        30.44R
KENANSVILLE    SUNNY     39  10  29 N7        30.46S
KINSTON        SUNNY     39  14  35 N9        30.45R
NEW BERN       SUNNY     39  14  36 NW10G21   30.44S
RICHLANDS      SUNNY     39  12  33 NW6       30.45S
ROCKY MOUNT    SUNNY     39  12  33 N10       30.45R
WASHINGTON     SUNNY     37  14  39 N13       30.43F
WHITEVILLE     SUNNY     40  11  30 NE5       30.46R

$$

AMZ130-135-150-152-154-156-158-170-250-252-270-ANZ085-086-088-633-658-670-291600-
MARINE OBSERVATIONS

STATION/POSITION TIME  TEMP    WIND        PRES    WAVE   SWELL
                       AIR SEA DIR/SP/G            HT/PER HT/PER
                 (UTC) (F)     (DEG/KT/KT) (MB)    (FT/S) (FT/S)
CHESAPEAKE LIGHT 1500   31     330/ 19/ 20 1029.3
64 E VA BEACH    1450   34 50  330/ 21/ 25 1027.4    6/ 6   2/10
DUCK             1500   32 42  340/ 16/ 19 1028.2
2 E DUCK         1411      42                N/A     4/ 6
10 NE DUCK       NOT AVBL
OREGON INLET     1500   34 44  350/ 16/ 19 1029.1
HATTERAS CG      1406   36 48  340/ 19/ 25 1029.3
CAPE LOOKOUT     1500   38     350/ 16/ 18 1029.9
BEAUFORT LAB     1500          350/ 13/ 17 1029.3
27 SE WRIGHTSVLE 1500   36 64   30/ 10/ 14 1031.7
5 SE WRIGHTSVLE  1500   38 55  360/ 10/ 12 1031.1
225 S CAPE HAT   1450   56 68  330/ 25/ 31 1025.9   10/ 7
41 SE CHARLESTON 1450   47 67   30/ 19/ 25 1030.1    6/ 6   2/14

$$


USA.gov is the U.S. government's official web portal to all federal, state and local government web resources and services.